Preview of NWS' New Version of Forecast
This preview is not operational and should not be used for support decisions.

Regional Weather Roundup (RWR)

Issued by National Weather Service (NWS)

                            
000
ASUS43 KDTX 171501
RWRMI 
MICHIGAN HOURLY REGIONAL WEATHER ROUNDUP
NATIONAL WEATHER SERVICE DETROIT/PONTIAC MI
1000 AM EST SUN FEB 17 2019

NOTE: "FAIR" INDICATES FEW OR NO CLOUDS BELOW 12,000 FEET WITH NO
SIGNIFICANT WEATHER AND/OR OBSTRUCTION TO VISIBILITY.

MIZ047>049-052>055-059>063-066>070-074>076-081>083-171600-
SOUTHEAST LOWER MICHIGAN
  
CITY           SKY/WX    TMP DP  RH WIND       PRES   REMARKS
ADRIAN         CLOUDY    24  16  71 E17       29.97F WCI  11          
ALMA           CLOUDY    20  15  81 NE7       30.02S WCI  12          
ANN ARBOR      CLOUDY    23  16  74 NE12      29.97F WCI  12          
BAD AXE        CLOUDY    22  16  76 E10       30.05F WCI  11          
CARO           CLOUDY    23  17  76 E10G16    30.03F WCI  13          
DETROIT CITY   CLOUDY    23  16  74 E12       30.03F WCI  12          
DETROIT        CLOUDY    24  15  68 E14       30.00F WCI  12          
FLINT          CLOUDY    22  14  71 E16       30.02S WCI   8          
GROSSE ILE     CLOUDY    24  18  79 E12       29.98F WCI  13          
HILLSDALE      CLOUDY    24  17  75 E14G22    29.91F WCI  12          
HOWELL         CLOUDY    23  15  72 E13       29.97F WCI  11          

CITY           SKY/WX    TMP DP  RH WIND       PRES   REMARKS
JACKSON        CLOUDY    23  16  74 E14G23    29.95F WCI  11          
LAMBERTVILLE   CLOUDY    26  21  80 E10G18    29.97F WCI  16          
LANSING        CLOUDY    22  16  78 E15       29.97F WCI   9          
LAPEER         CLOUDY    23  14  69 E7        30.03S WCI  15          
MASON          CLOUDY    23  17  77 E12       29.96F WCI  12          
MONROE         CLOUDY    24  20  85 E9G18     29.97F WCI  15          
MT. CLEMENS    CLOUDY    22  18  84 E9          N/A  WCI  12          
PONTIAC        CLOUDY    21  14  74 E9G20     29.99F WCI  11          
PORT HOPE        N/A     22  15  75 E14       30.07F WCI   9          
PORT HURON     CLOUDY    21  16  79 E9        30.05S WCI  11          
TRI CITIES     CLOUDY    23  16  74 E10       30.03F WCI  12          
MIDLAND        CLOUDY    24  16  71 NE9       30.02F WCI  14          
TROY           CLOUDY    23  13  67 NE10      30.04F WCI  12          
SAGINAW HB     CLOUDY    25  18  74 E9        30.03S WCI  15          
$$
MIZ043>046-050>051-056>058-064>065-071>073-077>080-171600-
SOUTHWEST LOWER MICHIGAN
  
CITY           SKY/WX    TMP DP  RH WIND       PRES   REMARKS
BATTLE CREEK   CLOUDY    23  16  74 E10       29.93F WCI  12          
BENTON HARBOR  FLURRIES  26  18  71 E10       29.92S WCI  16          
BIG RAPIDS     CLOUDY    20  15  80 E9        29.98F WCI  10          
COLDWATER      CLOUDY    26  19  77 E14       29.92F WCI  14          
FREMONT        PTSUNNY   22  13  71 E9        29.99R WCI  11          
HOLLAND        LGT SNOW  22  15  75 E13       29.97R WCI  10          
GRAND RAPIDS   CLOUDY    22  14  71 E15       29.96F WCI   9          
IONIA          CLOUDY    22  15  72 E13       29.97S WCI  10          
KALAMAZOO      CLOUDY    24  17  74 E9        29.93F WCI  14          
LUDINGTON      FAIR      20  13  74 E9        30.02R WCI   9          
MARSHALL       CLOUDY    23  17  78 E13       29.93F WCI  11          
MOUNT PLEASANT CLOUDY    23  14  69 NE8       30.01F WCI  14          
MUSKEGON       CLOUDY    23  13  65 E13       29.99R WCI  11          
SOUTH HAVEN    CLOUDY    26  18  72 E10       29.93F WCI  16          
$$
MIZ016>042-171600-
NORTHERN LOWER MICHIGAN
  
CITY           SKY/WX    TMP DP  RH WIND       PRES   REMARKS
ALPENA         LGT SNOW  15  12  88 NE5       30.10F FOG     WCI   8  
BEAVER ISLAND  LGT SNOW  11   9  89 NE6       30.11F WCI   2          
BELLAIRE       FAIR      10   7  87 CALM      30.09F                  
CADILLAC       CLOUDY    16  10  77 E10       29.96F WCI   4          
CHARLEVOIX     FAIR      10   7  87 CALM      30.12F                  
FRANKFORT      PTSUNNY   19  11  72 NE7       30.05S WCI  10          
GAYLORD        FAIR      12  10  92 NE6       30.03F WCI   3          
GRAYLING       FAIR       5   2  89 CALM      30.02F                  
HARBOR SPRINGS PTSUNNY    7   4  87 E5        30.09F WCI  -2          
HOUGHTON LAKE  CLOUDY    14  10  84 NE9       30.02F WCI   2          
MANISTEE       CLOUDY    19  13  77 NE8       30.03R WCI   9          
OSCODA         CLOUDY    22  15  75 E12       30.07F WCI  11          
PELLSTON       FAIR       3   1  91 CALM      30.11F                  
ROGERS CITY    LGT SNOW  14  12  91 CALM      30.12F                  
TRAVERSE CITY  PTSUNNY   17  10  74 N7        30.05F WCI   8          
$$
MIZ007>008-015-171600-
EASTERN UPPER MICHIGAN
  
CITY           SKY/WX    TMP DP  RH WIND       PRES   REMARKS
KINROSS        LGT SNOW   8   4  83 E9        30.14S FOG     WCI  -5  
MACKINAC ISLAN LGT SNOW  16  12  86 NE12      30.11F WCI   2          
NEWBERRY       FAIR       8   6  92 MISG      30.12F                  
S. S. MARIE    FRZ RAIN   9   6  88 E5        30.15F WCI   1          
MUNISING         N/A     18  14  84 CALM      30.12F                  
$$
MIZ004>006-011>014-085-171600-
CENTRAL UPPER MICHIGAN
  
CITY           SKY/WX    TMP DP  RH WIND       PRES   REMARKS
MANISTIQUE     FAIR      14   6  70 N6        30.10F WCI   5          
ESCANABA       PTSUNNY   18  11  74 NE7       30.12S WCI   9          
MENOMINEE      FLURRIES  20  13  74 NE17      30.08S WCI   5          
SAWYER-GWINN   LGT SNOW  12   9  85 CALM      30.07S                  
$$
MIZ001>003-009>011-084-171600-
WESTERN UPPER MICHIGAN
  
CITY           SKY/WX    TMP DP  RH WIND       PRES   REMARKS
IRON MOUNTAIN  PTSUNNY   11   7  84 N8        30.07R WCI  -1          
HOUGHTON       CLOUDY    14   7  73 NE9       30.12F WCI   2          
COPPER HARBOR    N/A     17   9  70 E15       30.16F WCI   2          
IRONWOOD       FAIR       7   4  87 CALM      30.11S                  
$$

ABBREVIATIONS USED IN REMARKS
   TC - TEMPERATURE IN CELSIUS
  WCI - WIND CHILL INDEX
   HX - HEAT INDEX
  VSB - VISIBILITY